#timestamp,LO_Frequency,Hit,StdDev 
1512943215.2,286047003.2,N
1512943235.1,286047007.1,N
1512943236.0,286047007.1,N
1512943255.8,286047001.8,N
1512943275.6,286047004.7,N
1512943295.5,286047000.1,N
1512943315.3,286047002.1,N
1512943335.2,286047002.2,N
1512943355.9,286047005.0,N
1512943375.7,286047003.2,N
1512943395.6,286046999.8,N
1512943415.4,286046998.7,N
1512943435.3,286046998.9,N
1512943455.1,286046999.8,N
1512943456.0,286046999.8,N
1512943475.8,286046998.4,N
1512943495.7,286046998.9,N
1512943515.5,286046997.2,N
1512943535.3,286047000.6,N
1512943555.2,286046996.2,N
1512943575.0,286046995.0,N
1512943575.9,286046995.0,N
1512943595.8,286046996.5,N
1512943615.6,286047002.1,N
1512943635.4,286047000.0,N
1512943655.3,286047001.7,N
1512943675.1,286046996.7,N
1512943695.9,286046997.0,N
1512943715.7,286047008.0,N
1512943735.5,286047009.1,N
1512943755.4,286047003.1,N
1512943775.2,286047005.2,N
1512943795.0,286047003.1,N
1512943795.9,286047003.1,N
1512943815.8,286047004.7,N
1512943835.6,286047007.2,N
1512943855.5,286047006.4,N
1512943875.3,286046999.7,N
1512943895.1,286047000.7,N
1512943915.9,286046999.4,N
1512943935.7,286047000.4,N
1512943955.6,286047003.3,N
1512943975.4,286047004.6,N
1512943995.2,286047009.0,N
1512944015.1,286047005.8,N
1512944016.0,286047005.8,N
1512944035.8,286047002.2,N
1512944055.6,286047006.0,N
1512944075.5,286047004.9,N
1512944095.3,286047006.1,N
1512944115.2,286047010.2,N
1512944135.9,286047008.6,N
1512944155.7,286047012.4,Y
1512944175.6,286047005.5,P
1512944195.4,286047008.0,P
1512944215.3,286047010.1,P
1512944235.1,286047007.8,Y
1512944266.0,286047001.1,E
1512944275.1,286046998.3,N
1512944276.0,286046998.3,P
1512944295.8,286047001.2,P
1512944315.6,286046996.4,N
1512944335.5,286046995.2,N
1512944355.3,286046996.0,N
1512944375.1,286047000.6,N
1512944395.9,286047001.0,N
1512944415.7,286047000.3,N
1512944435.6,286047000.7,N
1512944455.4,286046997.7,N
1512944475.2,286046998.4,N
1512944495.1,286047002.0,N
1512944496.0,286047002.0,N
1512944515.8,286046998.4,N
1512944535.6,286047000.7,N
1512944555.5,286047000.2,N
1512944575.3,286047000.1,N
1512944595.2,286046999.1,N
1512944615.9,286046999.3,N
1512944635.7,286047000.0,N
1512944655.6,286046999.8,N
1512944675.4,286046998.5,N
1512944695.3,286046998.7,N
1512944715.1,286046999.0,N
1512944716.0,286046999.0,N
1512944735.8,286047011.9,Y
1512944755.7,286047002.2,P
1512944775.5,286047003.7,N
1512944795.3,286047000.2,N
1512944815.2,286046997.6,N
1512944835.0,286046993.3,Y
1512944835.9,286046993.3,P
1512944855.8,286046996.3,N
1512944875.6,286046998.1,N
1512944895.4,286047002.0,N
1512944915.3,286047004.8,N
1512944935.1,286047006.0,N
1512944955.9,286047001.9,N
1512944975.7,286046999.8,N
1512944995.5,286046999.3,N
1512945015.4,286046997.2,N
1512945035.2,286046997.2,N
1512945055.0,286046996.0,N
1512945056.0,286046996.0,N
1512945075.8,286046994.8,N
1512945095.6,286046992.2,N
1512945115.5,286046996.2,N
1512945135.3,286046999.2,N
1512945155.1,286046999.6,N
1512945175.9,286046993.7,N
1512945195.7,286046993.6,N
1512945215.6,286046995.5,N
1512945235.4,286046993.3,N
1512945255.2,286046995.2,N
1512945275.1,286046994.0,N
1512945276.0,286046994.0,N
1512945295.8,286046992.2,N
1512945315.6,286046992.1,N
1512945335.5,286046993.5,N
1512945355.3,286046992.0,N
1512945375.2,286046992.6,N
1512945395.9,286046990.2,N
1512945415.7,286046991.0,N
1512945435.6,286046992.4,N
1512945455.4,286046994.0,N
1512945475.3,286046995.9,N
1512945495.1,286046992.5,N
1512945496.0,286046992.5,N
1512945515.8,286046991.4,Y
1512945535.7,286046996.6,P
1512945555.5,286046995.7,P
1512945575.4,286047001.2,N
1512945595.2,286046997.5,N
1512945615.0,286046993.8,N
1512945615.9,286046993.8,N
1512945635.8,286046997.5,N
1512945685.6,286046995.3,E
1512945695.6,286046995.9,N
1512945715.4,286047000.3,P
1512945735.2,286047001.3,N
1512945755.1,286047008.9,Y
1512945756.0,286047008.9,P
1512945775.8,286047008.3,N
1512945795.7,286047005.7,N
1512945815.5,286047002.3,N
1512945835.3,286047003.6,N
1512945855.2,286047007.1,N
1512945875.0,286047002.2,N
1512945875.9,286047002.2,N
1512945895.8,286047004.0,N
1512945915.6,286047004.4,N
1512945935.4,286047005.6,N
1512945955.3,286047001.1,N
1512945975.1,286046998.7,N
1512945995.8,286046998.7,N
1512946015.7,286046996.7,N
1512946035.5,286046997.0,N
1512946055.4,286046996.9,N
1512946075.2,286047002.4,N
1512946095.0,286047002.6,N
1512946095.9,286047002.6,N
1512946115.8,286047002.5,N
1512946135.6,286047000.9,N
1512946155.5,286047002.1,N
1512946175.3,286047007.2,N
1512946195.1,286047005.2,N
1512946215.9,286047002.6,N
1512946235.7,286047006.4,N
1512946255.5,286047007.1,N
1512946275.4,286047006.4,N
1512946295.2,286047001.8,N
1512946315.1,286047001.7,N
1512946316.0,286047001.7,N
1512946335.8,286046996.6,N
1512946355.6,286047001.8,N
1512946375.5,286047004.5,N
1512946395.3,286047004.7,N
1512946415.1,286047004.5,N
1512946435.9,286046999.4,N
1512946455.7,286046995.3,N
1512946475.6,286046997.7,N
1512946495.4,286047000.6,N
1512946515.2,286047005.8,N
1512946535.1,286047003.3,N
1512946536.0,286047003.3,N
1512946555.8,286047004.8,N
1512946575.7,286047003.9,N
1512946595.5,286047004.2,N
1512946615.3,286047005.3,N
1512946635.2,286047005.5,N
1512946655.0,286047001.4,N
1512946655.9,286047001.4,N
1512946675.8,286047007.6,N
1512946695.6,286047007.8,N
1512946715.4,286047005.3,N
1512946735.3,286047001.2,N
1512946755.1,286046999.6,N
1512946775.8,286047003.5,N
1512946795.7,286047005.6,N
